Terug naar catalogus

STARLINK-32789

ActiefCommunicatieVLEO
NORAD 62529·PAYLOAD·🇺🇸 United States

Gelanceerd Jan 8, 2025 vanaf Cape Canaveral Space Force Station

Loading…

Volgende Passages (komende 24 uur)

TLE

VersSource: CelesTrak SupGP

Epoch: Sep 14, 2026, 14:31 UTC

1 62529C 25004U   26257.60534722 -.00032830  00000+0 -11895-2 0  2576
2 62529  42.9997 233.0804 0001123 267.2708 303.9978 15.27583305    14

Volg STARLINK-32789 in realtime met AllMySat

Download on the App Store